QPF
0.00 0.00 0.00 0.00 0.00 0.00 0.00 0.00 0.01 0.02 0.02 0.03 0.03 0.03 0.03 0.05 0.07 0.05 0.04 0.04 0.04 0.03 0.04 0.03 0.02 0.02 0.03 0.05 0.06 0.06 0.06 0.07 0.08 0.08 0.07 0.05 0.05 0.06 0.07 0.06 0.05 0.06 0.05 0.04
0.00 0.00 0.00 0.00 0.00 0.00 0.00 0.00 0.01 0.02 0.02 0.04 0.04 0.03 0.04 0.04 0.05 0.05 0.04 0.04 0.03 0.03 0.03 0.03 0.03 0.02 0.03 0.05 0.06 0.06 0.07 0.08 0.08 0.07 0.06 0.05 0.04 0.04 0.04 0.05 0.05 0.05 0.05 0.04
0.00 0.00 0.00 0.00 0.00 0.00 0.00 0.01 0.01 0.01 0.04 0.05 0.05 0.03 0.03 0.03 0.04 0.05 0.05 0.05 0.04 0.03 0.03 0.03 0.03 0.04 0.05 0.08 0.07 0.07 0.07 0.06 0.07 0.07 0.08 0.08 0.07 0.06 0.06 0.05 0.04 0.04 0.03 0.03
0.00 0.00 0.00 0.00 0.00 0.00 0.00 0.00 0.01 0.01 0.03 0.04 0.03 0.02 0.03 0.04 0.03 0.04 0.05 0.06 0.04 0.03 0.02 0.02 0.02 0.03 0.04 0.06 0.06 0.06 0.05 0.04 0.05 0.06 0.07 0.08 0.09 0.07 0.05 0.05 0.05 0.04 0.03 0.03
0.00 0.00 0.00 0.00 0.00 0.00 0.00 0.00 0.01 0.01 0.01 0.02 0.02 0.01 0.02 0.04 0.03 0.03 0.05 0.05 0.04 0.04 0.04 0.03 0.03 0.04 0.05 0.07 0.08 0.07 0.06 0.06 0.05 0.05 0.05 0.07 0.07 0.05 0.05 0.06 0.06 0.04 0.03 0.03
0.01 0.01 0.01 0.01 0.00 0.00 0.00 0.01 0.01 0.01 0.01 0.01 0.01 0.01 0.01 0.03 0.03 0.02 0.04 0.05 0.05 0.06 0.06 0.05 0.04 0.05 0.07 0.08 0.07 0.06 0.07 0.07 0.05 0.05 0.06 0.06 0.06 0.06 0.07 0.07 0.06 0.05 0.04 0.03
0.01 0.01 0.01 0.01 0.01 0.01 0.00 0.01 0.01 0.01 0.01 0.01 0.01 0.01 0.00 0.01 0.01 0.02 0.04 0.04 0.04 0.05 0.06 0.06 0.04 0.04 0.08 0.11 0.11 0.09 0.07 0.05 0.03 0.04 0.05 0.06 0.06 0.06 0.06 0.06 0.06 0.05 0.03 0.03
0.00 0.01 0.00 0.00 0.00 0.00 0.00 0.00 0.01 0.01 0.01 0.01 0.01 0.01 0.00 0.01 0.01 0.01 0.02 0.03 0.03 0.03 0.04 0.04 0.04 0.06 0.09 0.12 0.11 0.08 0.05 0.04 0.04 0.04 0.04 0.05 0.05 0.06 0.06 0.06 0.04 0.04 0.03 0.04
0.00 0.00 0.00 0.00 0.00 0.00 0.00 0.00 0.00 0.01 0.01 0.01 0.01 0.00 0.01 0.01 0.01 0.02 0.02 0.02 0.02 0.02 0.04 0.05 0.05 0.06 0.07 0.07 0.07 0.05 0.04 0.05 0.05 0.04 0.04 0.04 0.05 0.06 0.06 0.05 0.04 0.02 0.02 0.02
0.00 0.00 0.00 0.00 0.00 0.00 0.00 0.00 0.00 0.01 0.01 0.01 0.01 0.01 0.02 0.01 0.01 0.02 0.02 0.02 0.02 0.03 0.06 0.07 0.05 0.06 0.06 0.05 0.05 0.05 0.04 0.04 0.04 0.04 0.03 0.04 0.04 0.05 0.05 0.05 0.03 0.02 0.02 0.02
0.00 0.00 0.00 0.00 0.00 0.00 0.00 0.00 0.00 0.00 0.00 0.00 0.00 0.00 0.01 0.01 0.01 0.01 0.02 0.02 0.02 0.03 0.05 0.05 0.05 0.05 0.05 0.04 0.04 0.04 0.05 0.04 0.04 0.03 0.04 0.04 0.04 0.03 0.03 0.03 0.02 0.01 0.01 0.01
0.00 0.00 0.00 0.00 0.00 0.00 0.00 0.00 0.00 0.00 0.00 0.00 0.00 0.00 0.01 0.01 0.01 0.01 0.02 0.02 0.02 0.03 0.05 0.06 0.06 0.05 0.04 0.04 0.05 0.05 0.06 0.06 0.06 0.05 0.05 0.06 0.04 0.02 0.02 0.02 0.01 0.01 0.01 0.00
0.00 0.00 0.00 0.00 0.00 0.00 0.00 0.00 0.00 0.00 0.00 0.00 0.00 0.01 0.01 0.01 0.01 0.01 0.01 0.02 0.02 0.03 0.05 0.06 0.07 0.07 0.05 0.05 0.05 0.05 0.05 0.05 0.05 0.04 0.04 0.05 0.04 0.02 0.01 0.01 0.01 0.01 0.00 0.00
0.01 0.01 0.00 0.00 0.00 0.00 0.00 0.00 0.00 0.00 0.00 0.01 0.01 0.01 0.01 0.01 0.01 0.01 0.01 0.01 0.02 0.03 0.05 0.07 0.06 0.05 0.04 0.04 0.05 0.06 0.06 0.04 0.03 0.03 0.03 0.04 0.04 0.03 0.02 0.01 0.00 0.01 0.01 0.01
0.01 0.01 0.00 0.00 0.00 0.00 0.00 0.00 0.00 0.00 0.00 0.01 0.01 0.01 0.01 0.01 0.00 0.00 0.00 0.01 0.02 0.02 0.04 0.08 0.09 0.06 0.04 0.03 0.04 0.05 0.04 0.03 0.03 0.03 0.04 0.04 0.05 0.05 0.04 0.02 0.01 0.01 0.01 0.00
0.01 0.00 0.00 0.00 0.00 0.00 0.00 0.00 0.00 0.00 0.00 0.00 0.01 0.01 0.00 0.01 0.01 0.01 0.01 0.01 0.01 0.01 0.02 0.05 0.09 0.07 0.05 0.03 0.03 0.03 0.03 0.02 0.02 0.03 0.03 0.03 0.04 0.04 0.03 0.03 0.02 0.01 0.01 0.00
0.01 0.01 0.01 0.00 0.00 0.00 0.00 0.00 0.00 0.00 0.00 0.01 0.01 0.01 0.01 0.01 0.01 0.01 0.01 0.01 0.01 0.01 0.01 0.02 0.05 0.07 0.05 0.04 0.04 0.03 0.03 0.02 0.02 0.02 0.03 0.03 0.03 0.03 0.03 0.03 0.02 0.02 0.01 0.01
0.01 0.01 0.01 0.00 0.00 0.00 0.01 0.01 0.00 0.00 0.00 0.00 0.00 0.01 0.01 0.01 0.02 0.02 0.02 0.01 0.01 0.02 0.02 0.02 0.04 0.07 0.06 0.05 0.04 0.03 0.02 0.02 0.03 0.03 0.02 0.02 0.03 0.04 0.05 0.04 0.03 0.02 0.02 0.02
0.01 0.01 0.01 0.01 0.00 0.01 0.01 0.01 0.01 0.01 0.01 0.00 0.00 0.01 0.01 0.02 0.02 0.03 0.02 0.02 0.02 0.02 0.03 0.03 0.04 0.06 0.07 0.05 0.04 0.03 0.02 0.01 0.02 0.03 0.03 0.03 0.03 0.04 0.04 0.04 0.02 0.01 0.01 0.01
0.01 0.01 0.01 0.01 0.00 0.01 0.01 0.01 0.01 0.01 0.01 0.01 0.01 0.01 0.01 0.01 0.02 0.02 0.02 0.02 0.03 0.03 0.05 0.07 0.06 0.07 0.07 0.08 0.06 0.05 0.03 0.02 0.02 0.02 0.02 0.03 0.04 0.04 0.03 0.03 0.02 0.01 0.02 0.02
0.01 0.01 0.01 0.01 0.01 0.01 0.01 0.01 0.01 0.01 0.01 0.00 0.01 0.01 0.01 0.02 0.02 0.01 0.02 0.02 0.02 0.04 0.06 0.11 0.08 0.07 0.09 0.10 0.09 0.07 0.04 0.03 0.03 0.03 0.03 0.03 0.02 0.01 0.01 0.00 0.00 0.01 0.01 0.01
0.01 0.01 0.01 0.01 0.01 0.01 0.01 0.01 0.01 0.01 0.00 0.00 0.00 0.01 0.01 0.01 0.01 0.02 0.02 0.02 0.02 0.03 0.06 0.11 0.10 0.09 0.08 0.10 0.10 0.07 0.04 0.03 0.03 0.03 0.03 0.04 0.04 0.02 0.01 0.01 0.01 0.01 0.01 0.01
0.01 0.01 0.00 0.01 0.01 0.01 0.00 0.01 0.01 0.01 0.01 0.00 0.00 0.00 0.00 0.01 0.01 0.01 0.02 0.02 0.03 0.03 0.05 0.08 0.10 0.08 0.08 0.08 0.08 0.07 0.04 0.03 0.03 0.02 0.02 0.02 0.01 0.02 0.01 0.01 0.01 0.01 0.01 0.01
0.01 0.01 0.01 0.01 0.01 0.00 0.00 0.00 0.00 0.00 0.00 0.00 0.00 0.00 0.00 0.00 0.01 0.01 0.01 0.03 0.03 0.02 0.03 0.06 0.08 0.07 0.07 0.08 0.08 0.06 0.04 0.03 0.03 0.02 0.01 0.01 0.01 0.01 0.01 0.00 0.00 0.01 0.01 0.01
0.01 0.01 0.01 0.00 0.00 0.00 0.01 0.01 0.00 0.00 0.00 0.00 0.01 0.01 0.01 0.00 0.01 0.01 0.02 0.02 0.02 0.01 0.02 0.03 0.06 0.07 0.06 0.07 0.07 0.05 0.04 0.02 0.02 0.02 0.01 0.01 0.01 0.01 0.01 0.01 0.00 0.00 0.00 0.01
0.00 0.00 0.00 0.00 0.00 0.01 0.02 0.01 0.01 0.01 0.00 0.01 0.01 0.01 0.00 0.00 0.00 0.01 0.01 0.02 0.01 0.01 0.02 0.02 0.04 0.05 0.06 0.06 0.06 0.04 0.02 0.02 0.02 0.01 0.01 0.02 0.02 0.01 0.01 0.01 0.00 0.00 0.00 0.00
MSLP
1013.79 1014.36 1014.69 1014.80 1014.72 1014.54 1014.33 1014.16 1014.05 1014.03 1014.05 1014.09 1014.10 1014.04 1013.89 1013.66 1013.37 1013.07 1012.78 1012.54 1012.36 1012.24 1012.19 1012.18 1012.20 1012.24 1012.32 1012.43 1012.59 1012.80 1013.07 1013.36 1013.67 1013.95 1014.19 1014.35 1014.43 1014.45 1014.41 1014.37 1014.37 1014.43 1014.59 1014.84
1013.86 1014.28 1014.48 1014.48 1014.36 1014.20 1014.09 1014.07 1014.16 1014.35 1014.57 1014.78 1014.89 1014.88 1014.73 1014.46 1014.10 1013.71 1013.35 1013.05 1012.83 1012.68 1012.60 1012.55 1012.52 1012.49 1012.47 1012.47 1012.52 1012.65 1012.85 1013.12 1013.43 1013.76 1014.05 1014.27 1014.41 1014.45 1014.42 1014.36 1014.31 1014.32 1014.42 1014.63
1013.71 1013.97 1014.03 1013.95 1013.81 1013.71 1013.73 1013.89 1014.21 1014.62 1015.06 1015.42 1015.64 1015.68 1015.52 1015.19 1014.76 1014.29 1013.86 1013.50 1013.24 1013.08 1012.97 1012.89 1012.80 1012.70 1012.58 1012.47 1012.41 1012.44 1012.56 1012.79 1013.11 1013.46 1013.80 1014.09 1014.28 1014.36 1014.35 1014.28 1014.20 1014.17 1014.22 1014.38
1013.41 1013.51 1013.44 1013.29 1013.17 1013.15 1013.32 1013.70 1014.25 1014.89 1015.52 1016.04 1016.35 1016.42 1016.24 1015.85 1015.35 1014.81 1014.31 1013.91 1013.63 1013.44 1013.33 1013.23 1013.10 1012.93 1012.73 1012.52 1012.35 1012.26 1012.30 1012.47 1012.75 1013.10 1013.47 1013.79 1014.03 1014.15 1014.16 1014.09 1013.99 1013.93 1013.94 1014.06
1013.03 1012.97 1012.80 1012.62 1012.53 1012.63 1012.97 1013.56 1014.33 1015.18 1015.98 1016.62 1017.00 1017.08 1016.88 1016.44 1015.87 1015.26 1014.72 1014.29 1014.00 1013.83 1013.72 1013.62 1013.48 1013.27 1012.99 1012.69 1012.41 1012.21 1012.14 1012.22 1012.44 1012.75 1013.11 1013.43 1013.69 1013.82 1013.85 1013.79 1013.69 1013.60 1013.59 1013.68
1012.66 1012.48 1012.24 1012.05 1012.02 1012.24 1012.75 1013.52 1014.47 1015.49 1016.42 1017.14 1017.56 1017.65 1017.41 1016.92 1016.30 1015.66 1015.10 1014.67 1014.40 1014.26 1014.18 1014.11 1013.97 1013.74 1013.42 1013.05 1012.67 1012.35 1012.17 1012.13 1012.25 1012.48 1012.78 1013.08 1013.31 1013.45 1013.48 1013.43 1013.33 1013.24 1013.22 1013.30
1012.39 1012.11 1011.84 1011.67 1011.71 1012.04 1012.68 1013.59 1014.68 1015.80 1016.80 1017.57 1018.00 1018.07 1017.80 1017.28 1016.64 1015.99 1015.44 1015.05 1014.82 1014.74 1014.72 1014.70 1014.59 1014.37 1014.03 1013.60 1013.14 1012.72 1012.41 1012.25 1012.24 1012.37 1012.58 1012.81 1013.00 1013.12 1013.14 1013.09 1013.01 1012.93 1012.92 1012.99
1012.25 1011.94 1011.66 1011.53 1011.65 1012.06 1012.79 1013.77 1014.92 1016.07 1017.09 1017.84 1018.25 1018.30 1018.01 1017.49 1016.86 1016.25 1015.75 1015.42 1015.27 1015.26 1015.32 1015.36 1015.31 1015.12 1014.77 1014.31 1013.79 1013.29 1012.87 1012.58 1012.45 1012.45 1012.56 1012.70 1012.84 1012.92 1012.94 1012.90 1012.83 1012.77 1012.77 1012.85
1012.26 1011.96 1011.72 1011.65 1011.82 1012.28 1013.04 1014.03 1015.16 1016.27 1017.23 1017.93 1018.30 1018.32 1018.03 1017.54 1016.96 1016.42 1016.00 1015.77 1015.72 1015.80 1015.94 1016.06 1016.06 1015.91 1015.59 1015.13 1014.58 1014.01 1013.51 1013.12 1012.87 1012.76 1012.76 1012.82 1012.90 1012.95 1012.96 1012.93 1012.88 1012.84 1012.86 1012.95
1012.38 1012.15 1011.98 1011.97 1012.19 1012.66 1013.39 1014.32 1015.35 1016.36 1017.21 1017.82 1018.13 1018.13 1017.87 1017.44 1016.96 1016.53 1016.23 1016.11 1016.16 1016.33 1016.56 1016.74 1016.80 1016.69 1016.40 1015.96 1015.40 1014.81 1014.26 1013.81 1013.48 1013.29 1013.20 1013.20 1013.22 1013.25 1013.26 1013.24 1013.21 1013.20 1013.23 1013.33
1012.57 1012.45 1012.39 1012.45 1012.69 1013.14 1013.79 1014.60 1015.47 1016.32 1017.03 1017.53 1017.78 1017.78 1017.58 1017.25 1016.90 1016.61 1016.45 1016.45 1016.60 1016.85 1017.13 1017.36 1017.46 1017.39 1017.14 1016.72 1016.19 1015.62 1015.06 1014.58 1014.22 1013.98 1013.85 1013.80 1013.80 1013.82 1013.83 1013.83 1013.83 1013.84 1013.89 1013.97
1012.78 1012.81 1012.86 1013.00 1013.25 1013.65 1014.19 1014.83 1015.52 1016.18 1016.73 1017.13 1017.34 1017.36 1017.25 1017.05 1016.85 1016.72 1016.71 1016.83 1017.06 1017.37 1017.68 1017.92 1018.04 1017.99 1017.76 1017.38 1016.89 1016.36 1015.83 1015.37 1015.01 1014.77 1014.62 1014.56 1014.55 1014.58 1014.61 1014.63 1014.66 1014.70 1014.75 1014.82
1012.98 1013.17 1013.35 1013.55 1013.81 1014.13 1014.54 1015.01 1015.50 1015.98 1016.38 1016.69 1016.88 1016.95 1016.95 1016.91 1016.89 1016.93 1017.06 1017.28 1017.58 1017.91 1018.21 1018.43 1018.53 1018.47 1018.26 1017.91 1017.47 1017.00 1016.53 1016.12 1015.80 1015.58 1015.45 1015.40 1015.40 1015.44 1015.49 1015.55 1015.60 1015.65 1015.71 1015.78
1013.18 1013.52 1013.81 1014.07 1014.32 1014.57 1014.84 1015.14 1015.45 1015.75 1016.04 1016.28 1016.48 1016.64 1016.78 1016.91 1017.07 1017.28 1017.54 1017.84 1018.16 1018.48 1018.74 1018.91 1018.95 1018.86 1018.65 1018.33 1017.94 1017.53 1017.14 1016.80 1016.53 1016.35 1016.25 1016.22 1016.24 1016.30 1016.37 1016.45 1016.53 1016.61 1016.68 1016.74
1013.39 1013.86 1014.24 1014.53 1014.76 1014.93 1015.08 1015.23 1015.38 1015.56 1015.76 1015.98 1016.22 1016.49 1016.77 1017.09 1017.42 1017.77 1018.14 1018.50 1018.82 1019.09 1019.28 1019.37 1019.34 1019.20 1018.97 1018.67 1018.32 1017.98 1017.65 1017.38 1017.18 1017.04 1016.98 1016.97 1017.00 1017.07 1017.16 1017.26 1017.36 1017.46 1017.55 1017.62
1013.66 1014.20 1014.63 1014.93 1015.12 1015.22 1015.27 1015.29 1015.34 1015.43 1015.59 1015.82 1016.13 1016.51 1016.95 1017.43 1017.92 1018.40 1018.84 1019.22 1019.52 1019.73 1019.83 1019.82 1019.70 1019.51 1019.25 1018.95 1018.65 1018.35 1018.10 1017.89 1017.74 1017.64 1017.60 1017.60 1017.64 1017.71 1017.81 1017.92 1018.05 1018.17 1018.29 1018.39
1013.98 1014.55 1014.98 1015.27 1015.41 1015.44 1015.41 1015.35 1015.32 1015.37 1015.53 1015.80 1016.20 1016.70 1017.28 1017.90 1018.51 1019.08 1019.58 1019.96 1020.22 1020.35 1020.35 1020.24 1020.05 1019.79 1019.51 1019.22 1018.94 1018.70 1018.50 1018.34 1018.23 1018.16 1018.12 1018.12 1018.16 1018.22 1018.32 1018.44 1018.58 1018.74 1018.89 1019.02
1014.35 1014.89 1015.29 1015.53 1015.62 1015.59 1015.50 1015.40 1015.35 1015.39 1015.58 1015.92 1016.41 1017.02 1017.71 1018.44 1019.14 1019.77 1020.28 1020.64 1020.84 1020.89 1020.81 1020.62 1020.35 1020.06 1019.76 1019.48 1019.24 1019.04 1018.88 1018.77 1018.68 1018.62 1018.59 1018.57 1018.59 1018.64 1018.73 1018.85 1019.01 1019.19 1019.38 1019.55
1014.71 1015.18 1015.50 1015.68 1015.72 1015.65 1015.53 1015.43 1015.39 1015.48 1015.72 1016.13 1016.71 1017.41 1018.19 1018.98 1019.73 1020.38 1020.87 1021.20 1021.35 1021.33 1021.17 1020.92 1020.61 1020.30 1020.00 1019.74 1019.54 1019.38 1019.27 1019.19 1019.12 1019.07 1019.03 1019.00 1019.00 1019.04 1019.11 1019.23 1019.40 1019.60 1019.82 1020.03
1014.97 1015.34 1015.59 1015.70 1015.70 1015.61 1015.50 1015.43 1015.44 1015.59 1015.91 1016.40 1017.05 1017.82 1018.65 1019.47 1020.23 1020.86 1021.33 1021.60 1021.70 1021.62 1021.42 1021.14 1020.82 1020.51 1020.23 1020.01 1019.85 1019.74 1019.67 1019.62 1019.58 1019.53 1019.49 1019.45 1019.44 1019.46 1019.53 1019.65 1019.82 1020.03 1020.26 1020.50
1015.04 1015.32 1015.48 1015.55 1015.53 1015.46 1015.40 1015.39 1015.48 1015.72 1016.12 1016.69 1017.40 1018.21 1019.06 1019.88 1020.61 1021.20 1021.62 1021.84 1021.89 1021.78 1021.56 1021.27 1020.97 1020.68 1020.45 1020.28 1020.17 1020.11 1020.08 1020.07 1020.05 1020.02 1019.98 1019.95 1019.93 1019.94 1020.00 1020.12 1020.30 1020.51 1020.75 1020.98
1014.86 1015.05 1015.17 1015.21 1015.20 1015.19 1015.20 1015.29 1015.49 1015.84 1016.33 1016.97 1017.73 1018.55 1019.39 1020.18 1020.86 1021.40 1021.76 1021.94 1021.96 1021.83 1021.61 1021.35 1021.08 1020.84 1020.66 1020.55 1020.49 1020.48 1020.50 1020.51 1020.52 1020.52 1020.50 1020.47 1020.46 1020.49 1020.55 1020.67 1020.84 1021.05 1021.27 1021.49
1014.40 1014.54 1014.63 1014.68 1014.73 1014.80 1014.92 1015.14 1015.47 1015.93 1016.51 1017.22 1018.00 1018.83 1019.64 1020.38 1021.00 1021.48 1021.79 1021.93 1021.93 1021.81 1021.61 1021.39 1021.17 1020.99 1020.88 1020.82 1020.81 1020.84 1020.89 1020.94 1020.98 1021.00 1021.00 1021.01 1021.02 1021.06 1021.14 1021.26 1021.42 1021.61 1021.81 1021.99
1013.69 1013.81 1013.91 1014.01 1014.14 1014.32 1014.58 1014.93 1015.39 1015.97 1016.65 1017.41 1018.21 1019.02 1019.79 1020.48 1021.04 1021.46 1021.72 1021.85 1021.84 1021.75 1021.59 1021.42 1021.27 1021.15 1021.09 1021.08 1021.11 1021.18 1021.26 1021.33 1021.39 1021.44 1021.47 1021.50 1021.55 1021.61 1021.71 1021.83 1021.98 1022.15 1022.31 1022.44
1012.80 1012.92 1013.06 1013.24 1013.47 1013.78 1014.18 1014.68 1015.28 1015.97 1016.72 1017.53 1018.34 1019.12 1019.85 1020.47 1020.98 1021.35 1021.59 1021.71 1021.73 1021.67 1021.57 1021.47 1021.38 1021.33 1021.31 1021.34 1021.40 1021.48 1021.57 1021.66 1021.73 1021.80 1021.86 1021.92 1022.00 1022.09 1022.20 1022.33 1022.47 1022.60 1022.72 1022.80
1011.82 1011.97 1012.16 1012.43 1012.78 1013.22 1013.76 1014.40 1015.12 1015.90 1016.72 1017.55 1018.36 1019.12 1019.80 1020.37 1020.83 1021.17 1021.40 1021.54 1021.59 1021.60 1021.57 1021.53 1021.51 1021.51 1021.54 1021.59 1021.66 1021.74 1021.83 1021.91 1021.99 1022.07 1022.15 1022.23 1022.33 1022.44 1022.56 1022.69 1022.82 1022.92 1022.99 1023.02
Thickness
5700 5690 5685 5693 5699 5703 5702 5698 5695 5702 5715 5713 5710 5710 5715 5719 5719 5717 5716 5716 5715 5714 5714 5713 5711 5710 5707 5705 5703 5700 5697 5693 5690 5686 5681 5677 5674 5672 5670 5668 5667 5665 5664 5662
5687 5686 5698 5703 5704 5702 5699 5694 5694 5701 5713 5710 5704 5706 5712 5715 5716 5717 5716 5714 5712 5709 5707 5706 5705 5704 5702 5699 5697 5694 5692 5688 5684 5681 5677 5672 5668 5665 5663 5661 5660 5658 5656 5655
5686 5694 5705 5703 5700 5698 5698 5695 5696 5697 5703 5705 5702 5698 5704 5711 5714 5714 5714 5713 5711 5709 5705 5702 5700 5698 5696 5694 5693 5690 5687 5683 5680 5676 5672 5667 5663 5659 5656 5653 5651 5650 5649 5647
5690 5700 5703 5700 5700 5700 5692 5706 5704 5699 5690 5682 5693 5678 5696 5703 5704 5707 5709 5709 5709 5708 5706 5701 5697 5694 5693 5691 5689 5686 5682 5678 5674 5671 5667 5663 5657 5652 5648 5646 5643 5642 5641 5639
5692 5701 5701 5699 5704 5706 5702 5709 5703 5697 5687 5679 5683 5676 5685 5697 5698 5703 5707 5708 5708 5706 5703 5698 5694 5691 5689 5687 5683 5681 5677 5673 5669 5666 5662 5657 5652 5647 5642 5639 5636 5635 5633 5631
5697 5707 5709 5709 5714 5714 5708 5700 5691 5681 5675 5666 5678 5672 5678 5688 5698 5703 5706 5705 5704 5702 5699 5695 5692 5688 5684 5681 5678 5675 5670 5666 5663 5660 5655 5651 5646 5641 5636 5632 5630 5628 5625 5624
5690 5701 5711 5715 5705 5705 5700 5680 5662 5660 5653 5659 5676 5673 5679 5697 5704 5706 5704 5702 5700 5698 5694 5691 5687 5684 5681 5677 5672 5668 5664 5661 5657 5653 5649 5645 5641 5636 5631 5627 5624 5621 5618 5616
5677 5680 5703 5710 5705 5696 5693 5684 5661 5652 5650 5658 5670 5668 5684 5700 5703 5705 5703 5700 5696 5693 5690 5687 5684 5680 5677 5673 5668 5663 5658 5654 5651 5647 5643 5639 5635 5630 5626 5622 5618 5614 5611 5609
5675 5681 5705 5712 5713 5704 5689 5680 5681 5663 5658 5653 5660 5673 5686 5695 5696 5696 5694 5691 5689 5688 5686 5683 5679 5675 5671 5667 5662 5658 5653 5648 5643 5640 5636 5632 5628 5624 5620 5616 5611 5608 5605 5602
5689 5682 5697 5706 5709 5702 5697 5683 5666 5657 5648 5646 5660 5666 5673 5686 5687 5688 5686 5684 5683 5682 5678 5676 5673 5669 5665 5661 5657 5652 5648 5643 5638 5634 5630 5626 5621 5617 5613 5609 5604 5601 5599 5596
5694 5681 5687 5695 5694 5689 5686 5680 5668 5656 5656 5647 5645 5662 5687 5687 5686 5684 5683 5681 5679 5676 5672 5669 5665 5662 5659 5655 5651 5646 5642 5637 5633 5629 5624 5619 5614 5611 5607 5603 5599 5596 5593 5591
5690 5676 5671 5684 5698 5702 5695 5684 5670 5661 5657 5650 5647 5659 5688 5686 5684 5681 5679 5676 5673 5669 5665 5662 5659 5655 5652 5648 5644 5640 5636 5632 5628 5624 5619 5613 5608 5604 5600 5597 5594 5591 5588 5586
5689 5674 5662 5669 5679 5690 5688 5684 5677 5665 5654 5645 5645 5662 5682 5680 5678 5677 5674 5670 5666 5661 5658 5654 5652 5649 5645 5641 5637 5634 5629 5626 5623 5619 5614 5609 5603 5599 5595 5592 5589 5587 5584 5581
5695 5674 5667 5663 5669 5680 5682 5682 5676 5666 5652 5649 5655 5665 5674 5673 5671 5669 5667 5664 5659 5655 5651 5648 5644 5642 5639 5636 5632 5628 5624 5621 5618 5614 5609 5604 5599 5595 5591 5588 5585 5582 5579 5576
5691 5675 5676 5678 5684 5685 5683 5681 5677 5672 5667 5659 5665 5665 5671 5672 5668 5665 5662 5658 5654 5649 5646 5643 5639 5635 5632 5629 5626 5623 5619 5616 5613 5609 5605 5600 5596 5592 5588 5584 5581 5578 5575 5573
5681 5675 5675 5675 5681 5681 5677 5679 5678 5674 5671 5667 5667 5666 5673 5669 5664 5659 5656 5653 5649 5646 5642 5639 5635 5631 5627 5624 5622 5619 5615 5611 5608 5604 5600 5596 5592 5588 5584 5581 5578 5575 5572 5569
5671 5668 5662 5659 5671 5673 5665 5675 5676 5675 5675 5670 5664 5668 5667 5663 5659 5655 5652 5649 5646 5643 5639 5635 5631 5628 5624 5621 5619 5615 5611 5607 5604 5601 5597 5593 5590 5586 5582 5578 5575 5572 5569 5567
5668 5661 5652 5652 5660 5652 5668 5684 5683 5676 5674 5674 5672 5670 5665 5662 5657 5653 5649 5646 5643 5640 5636 5632 5627 5623 5619 5617 5614 5611 5608 5603 5600 5597 5594 5591 5587 5583 5579 5576 5573 5570 5568 5566
5672 5662 5649 5643 5646 5655 5670 5680 5679 5673 5670 5673 5670 5666 5660 5656 5652 5647 5647 5645 5642 5639 5635 5630 5626 5621 5617 5613 5610 5607 5603 5600 5597 5595 5592 5589 5585 5582 5578 5575 5572 5569 5567 5565
5667 5663 5651 5644 5645 5646 5665 5682 5684 5676 5663 5671 5668 5661 5655 5652 5644 5644 5645 5642 5638 5634 5629 5625 5621 5617 5614 5610 5607 5603 5599 5596 5594 5592 5590 5587 5584 5581 5578 5574 5571 5569 5566 5564
5659 5654 5648 5643 5643 5652 5672 5680 5679 5658 5660 5670 5666 5660 5654 5650 5647 5645 5643 5638 5634 5630 5626 5623 5619 5615 5612 5607 5603 5599 5596 5594 5592 5590 5587 5585 5582 5580 5577 5574 5571 5568 5566 5564
5657 5651 5646 5641 5641 5650 5676 5675 5668 5665 5670 5667 5663 5659 5652 5647 5644 5641 5638 5634 5629 5625 5622 5620 5616 5612 5608 5604 5600 5596 5593 5592 5590 5587 5585 5583 5581 5579 5577 5573 5570 5568 5566 5563
5658 5659 5655 5654 5656 5667 5671 5673 5673 5670 5667 5664 5660 5656 5650 5643 5639 5636 5632 5628 5624 5621 5618 5616 5613 5608 5604 5601 5599 5595 5592 5590 5588 5585 5583 5581 5580 5577 5575 5572 5570 5568 5565 5563
5662 5662 5657 5656 5663 5668 5670 5671 5671 5669 5666 5663 5660 5654 5648 5641 5636 5632 5627 5623 5619 5616 5614 5611 5608 5605 5601 5598 5596 5595 5592 5590 5587 5584 5582 5580 5578 5576 5574 5572 5570 5568 5566 5564
5664 5661 5655 5656 5663 5667 5670 5669 5668 5665 5663 5659 5655 5651 5645 5639 5633 5628 5623 5619 5616 5613 5610 5607 5605 5603 5600 5597 5595 5594 5592 5589 5586 5584 5582 5579 5577 5575 5573 5572 5570 5569 5568 5566
5664 5662 5659 5661 5668 5665 5667 5669 5667 5663 5660 5656 5652 5645 5641 5637 5631 5625 5620 5616 5613 5610 5607 5605 5603 5602 5599 5597 5595 5593 5591 5589 5586 5583 5581 5579 5577 5575 5574 5572 5572 5572 5570 5569